ISS (ZARYA) 1 25544U 98067A 26256.17555434 .00004898 00000+0 96695-4 0 9992 2 25544 51.6307 224.6171 0004917 134.6730 225.4659 15.49096932585393 POISK 1 36086U 09060A 26256.17555434 .00004898 00000+0 96695-4 0 9990 2 36086 51.6307 224.6171 0004917 134.6730 225.4659 15.49096932586106 CSS (TIANHE) 1 48274U 21035A 26256.17612433 .00017557 00000+0 21566-3 0 9991 2 48274 41.4680 147.8011 0002646 275.2341 84.8195 15.59875810306906 ISS (NAUKA) 1 49044U 21066A 26256.17555434 .00004898 00000+0 96695-4 0 9998 2 49044 51.6307 224.6171 0004917 134.6730 225.4659 15.49096932586148 FREGAT DEB 1 49271U 11037PF 26256.25254651 .00015850 00000+0 22383-1 0 9993 2 49271 51.6448 96.6596 0941428 118.0650 251.8613 12.44391514236004 CSS (WENTIAN) 1 53239U 22085A 26256.17612433 .00017557 00000+0 21566-3 0 9994 2 53239 41.4680 147.8011 0002646 275.2341 84.8195 15.59875810288238 CSS (MENGTIAN) 1 54216U 22143A 26256.17612433 .00017557 00000+0 21566-3 0 9995 2 54216 41.4680 147.8011 0002646 275.2341 84.8195 15.59875810307731 HRC MONOBLOCK CAMERA 1 66052U 98067XR 26256.19035154 .00196620 25894-4 53875-3 0 9995 2 66052 51.6155 181.6489 0004772 130.6642 229.4781 15.93621923 51935 SZ-21 MODULE 1 66515U 25246C 26255.98736866 .00066046 00000+0 27003-3 0 9991 2 66515 41.4696 117.2166 0012076 286.9643 72.9880 15.85018110 47637 DUPLEX 1 66906U 98067XS 26256.12438155 .00045075 00000+0 37892-3 0 9999 2 66906 51.6254 203.2146 0004288 131.1936 228.9432 15.69404711 44439 KNACKSAT-2 1 67683U 98067XZ 26256.26758505 .00056607 00000+0 48949-3 0 9999 2 67683 51.6258 208.6995 0007938 155.7921 204.3450 15.68591836 34068 GXIBA-1 1 67685U 98067YB 26256.12698952 .00074033 00000+0 54365-3 0 9997 2 67685 51.6222 206.9764 0008652 152.3717 207.7743 15.72395430 34076 UITMSAT-2 1 67686U 98067YC 26256.24538449 .00176238 00000+0 78248-3 0 9991 2 67686 51.6229 200.9620 0007874 130.4281 229.7410 15.83276411 34161 LEOPARD 1 67687U 98067YD 26256.23734036 .00126031 00000+0 87525-3 0 9995 2 67687 51.6252 207.0020 0008176 131.9523 228.2174 15.73484711 34008 HMU-SAT2 1 67688U 98067YE 26256.21405197 .00118705 00000+0 69207-3 0 9993 2 67688 51.6248 203.8070 0007846 127.5490 232.6224 15.77518798 34046 CREW DRAGON 12 1 67796U 26031A 26256.17555434 .00004898 00000+0 96695-4 0 9999 2 67796 51.6307 224.6171 0004917 134.6730 225.4659 15.49096932586333 CYGNUS NG-24 1 68689U 26079A 26256.17555434 .00004898 00000+0 96695-4 0 9993 2 68689 51.6307 224.6171 0004917 134.6730 225.4659 15.49096932586458 PROGRESS-MS 34 1 68837U 26093A 26256.17555434 .00004898 00000+0 96695-4 0 9994 2 68837 51.6307 224.6171 0004917 134.6730 225.4659 15.49096932586497 TIANZHOU-10 1 69049U 26102A 26256.17612433 .00017557 00000+0 21566-3 0 9994 2 69049 41.4680 147.8011 0002646 275.2341 84.8195 15.59875810307708 SHENZHOU-23 (SZ-23) 1 69180U 26113A 26256.17612433 .00017557 00000+0 21566-3 0 9992 2 69180 41.4680 147.8011 0002646 275.2341 84.8195 15.59875810307557